owner,sensor,date,latitude,longitude,dew_point_temperature,qcFlag 
ADCP,ioos:station:NOAA.NDBC:WDEL1:1,2017-01-06T15:30:00Z,28.6620,-89.5510,17.5,11111222 
ADCP,ioos:station:NOAA.NDBC:WDEL1:1,2017-01-06T17:30:00Z,28.6620,-89.5510,11.2,11111222 
ADCP,ioos:station:NOAA.NDBC:WDEL1:1,2017-01-06T18:30:00Z,28.6620,-89.5510,9.5,11111222 
ADCP,ioos:station:NOAA.NDBC:WDEL1:1,2017-01-06T19:30:00Z,28.6620,-89.5510,9.0,11111222 
ADCP,ioos:station:NOAA.NDBC:WDEL1:1,2017-01-06T20:30:00Z,28.6620,-89.5510,8.6,11111222 
ADCP,ioos:station:NOAA.NDBC:WDEL1:1,2017-01-06T21:30:00Z,28.6620,-89.5510,9.2,11111222 
ADCP,ioos:station:NOAA.NDBC:WDEL1:1,2017-01-06T22:30:00Z,28.6620,-89.5510,9.0,11111222 
ADCP,ioos:station:NOAA.NDBC:WDEL1:1,2017-01-06T23:30:00Z,28.6620,-89.5510,7.6,11111222 
ADCP,ioos:station:NOAA.NDBC:WDEL1:1,2017-01-07T00:30:00Z,28.6620,-89.5510,8.6,11111222 
ADCP,ioos:station:NOAA.NDBC:WDEL1:1,2017-01-07T01:30:00Z,28.6620,-89.5510,7.6,11111222 
ADCP,ioos:station:NOAA.NDBC:WDEL1:1,2017-01-07T02:30:00Z,28.6620,-89.5510,7.4,11111222 
ADCP,ioos:station:NOAA.NDBC:WDEL1:1,2017-01-07T03:30:00Z,28.6620,-89.5510,6.0,11111222 
ADCP,ioos:station:NOAA.NDBC:WDEL1:1,2017-01-07T04:30:00Z,28.6620,-89.5510,5.5,11111222 
ADCP,ioos:station:NOAA.NDBC:WDEL1:1,2017-01-07T05:30:00Z,28.6620,-89.5510,4.9,11111222 
ADCP,ioos:station:NOAA.NDBC:WDEL1:1,2017-01-07T06:30:00Z,28.6620,-89.5510,5.1,11111222 
ADCP,ioos:station:NOAA.NDBC:WDEL1:1,2017-01-07T11:30:00Z,28.6620,-89.5510,1.4,11111222 
ADCP,ioos:station:NOAA.NDBC:WDEL1:1,2017-01-07T14:30:00Z,28.6620,-89.5510,-1.6,11144222 
ADCP,ioos:station:NOAA.NDBC:WDEL1:1,2017-01-07T15:30:00Z,28.6620,-89.5510,-2.0,11144222 
ADCP,ioos:station:NOAA.NDBC:WDEL1:1,2017-01-07T17:30:00Z,28.6620,-89.5510,-1.6,11144222 
ADCP,ioos:station:NOAA.NDBC:WDEL1:1,2017-01-07T19:30:00Z,28.6620,-89.5510,-2.7,11144222 
ADCP,ioos:station:NOAA.NDBC:WDEL1:1,2017-01-07T20:30:00Z,28.6620,-89.5510,-0.2,11144222 
ADCP,ioos:station:NOAA.NDBC:WDEL1:1,2017-01-07T21:30:00Z,28.6620,-89.5510,-2.8,11144222 
ADCP,ioos:station:NOAA.NDBC:WDEL1:1,2017-01-07T22:30:00Z,28.6620,-89.5510,-2.1,11144222 
ADCP,ioos:station:NOAA.NDBC:WDEL1:1,2017-01-08T00:30:00Z,28.6620,-89.5510,-2.2,11144222 
ADCP,ioos:station:NOAA.NDBC:WDEL1:1,2017-01-08T04:30:00Z,28.6620,-89.5510,-1.7,11144222 
ADCP,ioos:station:NOAA.NDBC:WDEL1:1,2017-01-08T07:00:00Z,28.6620,-89.5510,-1.2,11144222 
ADCP,ioos:station:NOAA.NDBC:WDEL1:1,2017-01-08T08:30:00Z,28.6620,-89.5510,-1.8,11144222 
ADCP,ioos:station:NOAA.NDBC:WDEL1:1,2017-01-08T10:30:00Z,28.6620,-89.5510,0.1,11111222 
ADCP,ioos:station:NOAA.NDBC:WDEL1:1,2017-01-08T16:30:00Z,28.6620,-89.5510,2.9,11111222 
ADCP,ioos:station:NOAA.NDBC:WDEL1:1,2017-01-08T18:30:00Z,28.6620,-89.5510,2.1,11111222 
ADCP,ioos:station:NOAA.NDBC:WDEL1:1,2017-01-08T19:30:00Z,28.6620,-89.5510,3.0,11111222 
ADCP,ioos:station:NOAA.NDBC:WDEL1:1,2017-01-08T20:30:00Z,28.6620,-89.5510,3.3,11111222 
ADCP,ioos:station:NOAA.NDBC:WDEL1:1,2017-01-08T21:30:00Z,28.6620,-89.5510,3.5,11111222 
ADCP,ioos:station:NOAA.NDBC:WDEL1:1,2017-01-08T23:30:00Z,28.6620,-89.5510,2.7,11111222 
ADCP,ioos:station:NOAA.NDBC:WDEL1:1,2017-01-09T00:30:00Z,28.6620,-89.5510,3.9,11111222 
ADCP,ioos:station:NOAA.NDBC:WDEL1:1,2017-01-09T02:30:00Z,28.6620,-89.5510,3.1,11111222 
ADCP,ioos:station:NOAA.NDBC:WDEL1:1,2017-01-09T07:30:00Z,28.6620,-89.5510,5.6,11111222 
ADCP,ioos:station:NOAA.NDBC:WDEL1:1,2017-01-09T08:30:00Z,28.6620,-89.5510,5.5,11111222 
ADCP,ioos:station:NOAA.NDBC:WDEL1:1,2017-01-09T09:30:00Z,28.6620,-89.5510,6.2,11111222 
ADCP,ioos:station:NOAA.NDBC:WDEL1:1,2017-01-09T11:30:00Z,28.6620,-89.5510,7.4,11111222 
ADCP,ioos:station:NOAA.NDBC:WDEL1:1,2017-01-09T12:30:00Z,28.6620,-89.5510,6.9,11111222 
ADCP,ioos:station:NOAA.NDBC:WDEL1:1,2017-01-09T14:30:00Z,28.6620,-89.5510,6.5,11111222 
ADCP,ioos:station:NOAA.NDBC:WDEL1:1,2017-01-09T20:30:00Z,28.6620,-89.5510,6.6,11111222 
ADCP,ioos:station:NOAA.NDBC:WDEL1:1,2017-01-09T21:30:00Z,28.6620,-89.5510,6.2,11111222 
ADCP,ioos:station:NOAA.NDBC:WDEL1:1,2017-01-09T23:30:00Z,28.6620,-89.5510,6.0,11111222 
ADCP,ioos:station:NOAA.NDBC:WDEL1:1,2017-01-10T04:30:00Z,28.6620,-89.5510,8.9,11111222 
ADCP,ioos:station:NOAA.NDBC:WDEL1:1,2017-01-10T05:30:00Z,28.6620,-89.5510,10.7,11111222 
ADCP,ioos:station:NOAA.NDBC:WDEL1:1,2017-01-10T06:30:00Z,28.6620,-89.5510,10.8,11111222 
ADCP,ioos:station:NOAA.NDBC:WDEL1:1,2017-01-10T07:30:00Z,28.6620,-89.5510,11.6,11111222 
ADCP,ioos:station:NOAA.NDBC:WDEL1:1,2017-01-10T08:30:00Z,28.6620,-89.5510,10.9,11111222 
ADCP,ioos:station:NOAA.NDBC:WDEL1:1,2017-01-10T09:30:00Z,28.6620,-89.5510,11.9,11111222 
ADCP,ioos:station:NOAA.NDBC:WDEL1:1,2017-01-10T11:30:00Z,28.6620,-89.5510,9.5,11111222 
ADCP,ioos:station:NOAA.NDBC:WDEL1:1,2017-01-10T14:30:00Z,28.6620,-89.5510,13.8,11111222 
ADCP,ioos:station:NOAA.NDBC:WDEL1:1,2017-01-10T16:30:00Z,28.6620,-89.5510,14.6,11111222 
ADCP,ioos:station:NOAA.NDBC:WDEL1:1,2017-01-10T21:30:00Z,28.6620,-89.5510,15.4,11111222 
ADCP,ioos:station:NOAA.NDBC:WDEL1:1,2017-01-11T14:30:00Z,28.6620,-89.5510,16.6,11111222 
ADCP,ioos:station:NOAA.NDBC:WDEL1:1,2017-01-11T15:30:00Z,28.6620,-89.5510,17.3,11111222 
ADCP,ioos:station:NOAA.NDBC:WDEL1:1,2017-01-11T16:30:00Z,28.6620,-89.5510,16.9,11111222 
ADCP,ioos:station:NOAA.NDBC:WDEL1:1,2017-01-11T18:30:00Z,28.6620,-89.5510,16.8,11111222 
ADCP,ioos:station:NOAA.NDBC:WDEL1:1,2017-01-11T22:30:00Z,28.6620,-89.5510,17.1,11111222 
ADCP,ioos:station:NOAA.NDBC:WDEL1:1,2017-01-12T12:30:00Z,28.6620,-89.5510,18.6,11111222 
ADCP,ioos:station:NOAA.NDBC:WDEL1:1,2017-01-12T13:30:00Z,28.6620,-89.5510,18.8,11111222 
ADCP,ioos:station:NOAA.NDBC:WDEL1:1,2017-01-12T14:30:00Z,28.6620,-89.5510,19.4,11111222 
ADCP,ioos:station:NOAA.NDBC:WDEL1:1,2017-01-12T15:30:00Z,28.6620,-89.5510,19.2,11111222 
ADCP,ioos:station:NOAA.NDBC:WDEL1:1,2017-01-12T16:30:00Z,28.6620,-89.5510,18.9,11111222 
ADCP,ioos:station:NOAA.NDBC:WDEL1:1,2017-01-12T17:30:00Z,28.6620,-89.5510,18.7,11111222 
ADCP,ioos:station:NOAA.NDBC:WDEL1:1,2017-01-12T18:30:00Z,28.6620,-89.5510,18.4,11111222 
ADCP,ioos:station:NOAA.NDBC:WDEL1:1,2017-01-12T19:30:00Z,28.6620,-89.5510,18.5,11111222 
ADCP,ioos:station:NOAA.NDBC:WDEL1:1,2017-01-12T20:30:00Z,28.6620,-89.5510,18.3,11111222 
ADCP,ioos:station:NOAA.NDBC:WDEL1:1,2017-01-12T21:30:00Z,28.6620,-89.5510,18.7,11111222 
ADCP,ioos:station:NOAA.NDBC:WDEL1:1,2017-01-12T22:30:00Z,28.6620,-89.5510,18.6,11111222 
ADCP,ioos:station:NOAA.NDBC:WDEL1:1,2017-01-12T23:30:00Z,28.6620,-89.5510,19.8,11111222 
ADCP,ioos:station:NOAA.NDBC:WDEL1:1,2017-01-13T00:30:00Z,28.6620,-89.5510,19.8,11111222 
ADCP,ioos:station:NOAA.NDBC:WDEL1:1,2017-01-13T01:30:00Z,28.6620,-89.5510,19.9,11111222 
ADCP,ioos:station:NOAA.NDBC:WDEL1:1,2017-01-13T02:30:00Z,28.6620,-89.5510,20.0,11111222 
ADCP,ioos:station:NOAA.NDBC:WDEL1:1,2017-01-13T03:30:00Z,28.6620,-89.5510,20.1,11111222 
ADCP,ioos:station:NOAA.NDBC:WDEL1:1,2017-01-13T04:30:00Z,28.6620,-89.5510,20.1,11111222 
ADCP,ioos:station:NOAA.NDBC:WDEL1:1,2017-01-13T05:30:00Z,28.6620,-89.5510,20.4,11111222 
ADCP,ioos:station:NOAA.NDBC:WDEL1:1,2017-01-13T06:30:00Z,28.6620,-89.5510,20.1,11111222 
ADCP,ioos:station:NOAA.NDBC:WDEL1:1,2017-01-13T07:30:00Z,28.6620,-89.5510,19.3,11111222 
ADCP,ioos:station:NOAA.NDBC:WDEL1:1,2017-01-13T08:30:00Z,28.6620,-89.5510,19.9,11111222 
ADCP,ioos:station:NOAA.NDBC:WDEL1:1,2017-01-13T09:30:00Z,28.6620,-89.5510,20.0,11111222 
ADCP,ioos:station:NOAA.NDBC:WDEL1:1,2017-01-13T10:30:00Z,28.6620,-89.5510,19.4,11111222 
ADCP,ioos:station:NOAA.NDBC:WDEL1:1,2017-01-13T11:30:00Z,28.6620,-89.5510,19.0,11111222 
ADCP,ioos:station:NOAA.NDBC:WDEL1:1,2017-01-13T12:30:00Z,28.6620,-89.5510,19.1,11111222 
ADCP,ioos:station:NOAA.NDBC:WDEL1:1,2017-01-13T13:30:00Z,28.6620,-89.5510,19.1,11111222 
ADCP,ioos:station:NOAA.NDBC:WDEL1:1,2017-01-13T14:30:00Z,28.6620,-89.5510,19.2,11111222 
ADCP,ioos:station:NOAA.NDBC:WDEL1:1,2017-01-13T15:30:00Z,28.6620,-89.5510,18.7,11111222 
ADCP,ioos:station:NOAA.NDBC:WDEL1:1,2017-01-13T16:30:00Z,28.6620,-89.5510,18.7,11111222 
ADCP,ioos:station:NOAA.NDBC:WDEL1:1,2017-01-13T17:30:00Z,28.6620,-89.5510,18.6,11111222 
ADCP,ioos:station:NOAA.NDBC:WDEL1:1,2017-01-13T18:30:00Z,28.6620,-89.5510,18.2,11111222 
ADCP,ioos:station:NOAA.NDBC:WDEL1:1,2017-01-13T20:30:00Z,28.6620,-89.5510,17.6,11111222 
ADCP,ioos:station:NOAA.NDBC:WDEL1:1,2017-01-13T21:30:00Z,28.6620,-89.5510,17.8,11111222 
ADCP,ioos:station:NOAA.NDBC:WDEL1:1,2017-01-13T22:30:00Z,28.6620,-89.5510,17.7,11111222 
ADCP,ioos:station:NOAA.NDBC:WDEL1:1,2017-01-13T23:30:00Z,28.6620,-89.5510,17.4,11111222 
ADCP,ioos:station:NOAA.NDBC:WDEL1:1,2017-01-14T00:30:00Z,28.6620,-89.5510,17.8,11111222 
ADCP,ioos:station:NOAA.NDBC:WDEL1:1,2017-01-14T01:30:00Z,28.6620,-89.5510,18.0,11111222 
ADCP,ioos:station:NOAA.NDBC:WDEL1:1,2017-01-14T02:30:00Z,28.6620,-89.5510,18.0,11111222 
ADCP,ioos:station:NOAA.NDBC:WDEL1:1,2017-01-14T03:30:00Z,28.6620,-89.5510,18.3,11111222 
ADCP,ioos:station:NOAA.NDBC:WDEL1:1,2017-01-14T04:30:00Z,28.6620,-89.5510,18.1,11111222 
ADCP,ioos:station:NOAA.NDBC:WDEL1:1,2017-01-14T05:30:00Z,28.6620,-89.5510,17.9,11111222 
ADCP,ioos:station:NOAA.NDBC:WDEL1:1,2017-01-14T06:30:00Z,28.6620,-89.5510,17.6,11111222 
ADCP,ioos:station:NOAA.NDBC:WDEL1:1,2017-01-14T07:30:00Z,28.6620,-89.5510,17.4,11111222 
ADCP,ioos:station:NOAA.NDBC:WDEL1:1,2017-01-14T08:30:00Z,28.6620,-89.5510,17.3,11111222 
ADCP,ioos:station:NOAA.NDBC:WDEL1:1,2017-01-14T09:30:00Z,28.6620,-89.5510,17.2,11111222 
ADCP,ioos:station:NOAA.NDBC:WDEL1:1,2017-01-14T10:30:00Z,28.6620,-89.5510,17.1,11111222 
ADCP,ioos:station:NOAA.NDBC:WDEL1:1,2017-01-14T11:30:00Z,28.6620,-89.5510,17.6,11111222 
ADCP,ioos:station:NOAA.NDBC:WDEL1:1,2017-01-14T12:30:00Z,28.6620,-89.5510,17.5,11111222 
ADCP,ioos:station:NOAA.NDBC:WDEL1:1,2017-01-14T13:30:00Z,28.6620,-89.5510,17.5,11111222 
ADCP,ioos:station:NOAA.NDBC:WDEL1:1,2017-01-14T14:30:00Z,28.6620,-89.5510,17.8,11111222 
ADCP,ioos:station:NOAA.NDBC:WDEL1:1,2017-01-14T15:30:00Z,28.6620,-89.5510,17.8,11111222 
ADCP,ioos:station:NOAA.NDBC:WDEL1:1,2017-01-14T16:30:00Z,28.6620,-89.5510,17.9,11111222 
ADCP,ioos:station:NOAA.NDBC:WDEL1:1,2017-01-14T17:30:00Z,28.6620,-89.5510,17.7,11111222 
ADCP,ioos:station:NOAA.NDBC:WDEL1:1,2017-01-14T18:30:00Z,28.6620,-89.5510,17.4,11111222 
ADCP,ioos:station:NOAA.NDBC:WDEL1:1,2017-01-14T19:30:00Z,28.6620,-89.5510,17.8,11111222 
ADCP,ioos:station:NOAA.NDBC:WDEL1:1,2017-01-14T20:30:00Z,28.6620,-89.5510,17.9,11111222 
ADCP,ioos:station:NOAA.NDBC:WDEL1:1,2017-01-14T21:30:00Z,28.6620,-89.5510,18.2,11111222 
ADCP,ioos:station:NOAA.NDBC:WDEL1:1,2017-01-14T22:30:00Z,28.6620,-89.5510,18.0,11111222 
ADCP,ioos:station:NOAA.NDBC:WDEL1:1,2017-01-14T23:30:00Z,28.6620,-89.5510,18.4,11111222 
ADCP,ioos:station:NOAA.NDBC:WDEL1:1,2017-01-15T00:30:00Z,28.6620,-89.5510,18.9,11111222 
ADCP,ioos:station:NOAA.NDBC:WDEL1:1,2017-01-15T01:30:00Z,28.6620,-89.5510,18.6,11111222 
ADCP,ioos:station:NOAA.NDBC:WDEL1:1,2017-01-15T02:30:00Z,28.6620,-89.5510,18.0,11111222 
ADCP,ioos:station:NOAA.NDBC:WDEL1:1,2017-01-15T03:30:00Z,28.6620,-89.5510,17.8,11111222 
ADCP,ioos:station:NOAA.NDBC:WDEL1:1,2017-01-15T04:30:00Z,28.6620,-89.5510,17.6,11111222 
ADCP,ioos:station:NOAA.NDBC:WDEL1:1,2017-01-15T05:30:00Z,28.6620,-89.5510,17.5,11111222 
ADCP,ioos:station:NOAA.NDBC:WDEL1:1,2017-01-15T06:30:00Z,28.6620,-89.5510,17.6,11111222 
ADCP,ioos:station:NOAA.NDBC:WDEL1:1,2017-01-15T07:30:00Z,28.6620,-89.5510,17.0,11111222 
ADCP,ioos:station:NOAA.NDBC:WDEL1:1,2017-01-15T08:30:00Z,28.6620,-89.5510,17.1,11111222 
ADCP,ioos:station:NOAA.NDBC:WDEL1:1,2017-01-15T09:30:00Z,28.6620,-89.5510,17.1,11111222 
ADCP,ioos:station:NOAA.NDBC:WDEL1:1,2017-01-15T10:30:00Z,28.6620,-89.5510,15.7,11111222 
ADCP,ioos:station:NOAA.NDBC:WDEL1:1,2017-01-15T11:30:00Z,28.6620,-89.5510,16.5,11111222 
ADCP,ioos:station:NOAA.NDBC:WDEL1:1,2017-01-15T12:30:00Z,28.6620,-89.5510,16.0,11111222 
ADCP,ioos:station:NOAA.NDBC:WDEL1:1,2017-01-15T13:30:00Z,28.6620,-89.5510,16.8,11111222 
ADCP,ioos:station:NOAA.NDBC:WDEL1:1,2017-01-15T14:30:00Z,28.6620,-89.5510,16.5,11111222 
ADCP,ioos:station:NOAA.NDBC:WDEL1:1,2017-01-15T18:30:00Z,28.6620,-89.5510,17.1,11111222 
ADCP,ioos:station:NOAA.NDBC:WDEL1:1,2017-01-15T19:30:00Z,28.6620,-89.5510,17.1,11111222 
ADCP,ioos:station:NOAA.NDBC:WDEL1:1,2017-01-15T21:30:00Z,28.6620,-89.5510,16.9,11111222 
ADCP,ioos:station:NOAA.NDBC:WDEL1:1,2017-01-15T22:30:00Z,28.6620,-89.5510,17.5,11111222 
ADCP,ioos:station:NOAA.NDBC:WDEL1:1,2017-01-15T23:30:00Z,28.6620,-89.5510,17.7,11111222 
ADCP,ioos:station:NOAA.NDBC:WDEL1:1,2017-01-16T00:30:00Z,28.6620,-89.5510,17.1,11111222 
ADCP,ioos:station:NOAA.NDBC:WDEL1:1,2017-01-16T01:30:00Z,28.6620,-89.5510,16.9,11111222 
ADCP,ioos:station:NOAA.NDBC:WDEL1:1,2017-01-16T02:30:00Z,28.6620,-89.5510,17.4,11111222 
ADCP,ioos:station:NOAA.NDBC:WDEL1:1,2017-01-16T03:30:00Z,28.6620,-89.5510,18.1,11111222 
ADCP,ioos:station:NOAA.NDBC:WDEL1:1,2017-01-16T04:30:00Z,28.6620,-89.5510,18.4,11111222 
ADCP,ioos:station:NOAA.NDBC:WDEL1:1,2017-01-16T05:30:00Z,28.6620,-89.5510,18.1,11111222 
ADCP,ioos:station:NOAA.NDBC:WDEL1:1,2017-01-16T06:30:00Z,28.6620,-89.5510,18.0,11111222 
ADCP,ioos:station:NOAA.NDBC:WDEL1:1,2017-01-16T07:30:00Z,28.6620,-89.5510,17.9,11111222 
ADCP,ioos:station:NOAA.NDBC:WDEL1:1,2017-01-16T08:30:00Z,28.6620,-89.5510,17.9,11111222 
ADCP,ioos:station:NOAA.NDBC:WDEL1:1,2017-01-16T09:30:00Z,28.6620,-89.5510,17.9,11111222 
ADCP,ioos:station:NOAA.NDBC:WDEL1:1,2017-01-16T10:30:00Z,28.6620,-89.5510,18.0,11111222 
ADCP,ioos:station:NOAA.NDBC:WDEL1:1,2017-01-16T11:30:00Z,28.6620,-89.5510,18.5,11111222 
ADCP,ioos:station:NOAA.NDBC:WDEL1:1,2017-01-16T12:30:00Z,28.6620,-89.5510,18.4,11111222 
ADCP,ioos:station:NOAA.NDBC:WDEL1:1,2017-01-16T13:30:00Z,28.6620,-89.5510,18.0,11111222 
ADCP,ioos:station:NOAA.NDBC:WDEL1:1,2017-01-16T14:30:00Z,28.6620,-89.5510,18.3,11111222 
ADCP,ioos:station:NOAA.NDBC:WDEL1:1,2017-01-16T16:30:00Z,28.6620,-89.5510,18.5,11111222 
ADCP,ioos:station:NOAA.NDBC:WDEL1:1,2017-01-16T18:30:00Z,28.6620,-89.5510,18.8,11111222 
ADCP,ioos:station:NOAA.NDBC:WDEL1:1,2017-01-16T19:30:00Z,28.6620,-89.5510,19.0,11111222 
ADCP,ioos:station:NOAA.NDBC:WDEL1:1,2017-01-16T20:30:00Z,28.6620,-89.5510,19.2,11111222 
ADCP,ioos:station:NOAA.NDBC:WDEL1:1,2017-01-16T21:30:00Z,28.6620,-89.5510,19.5,11111222 
ADCP,ioos:station:NOAA.NDBC:WDEL1:1,2017-01-16T22:30:00Z,28.6620,-89.5510,19.2,11111222 
ADCP,ioos:station:NOAA.NDBC:WDEL1:1,2017-01-16T23:30:00Z,28.6620,-89.5510,19.0,11111222 
ADCP,ioos:station:NOAA.NDBC:WDEL1:1,2017-01-17T00:30:00Z,28.6620,-89.5510,19.3,11111222 
ADCP,ioos:station:NOAA.NDBC:WDEL1:1,2017-01-17T01:30:00Z,28.6620,-89.5510,19.2,11111222 
ADCP,ioos:station:NOAA.NDBC:WDEL1:1,2017-01-17T02:30:00Z,28.6620,-89.5510,19.1,11111222 
ADCP,ioos:station:NOAA.NDBC:WDEL1:1,2017-01-17T03:30:00Z,28.6620,-89.5510,19.3,11111222 
ADCP,ioos:station:NOAA.NDBC:WDEL1:1,2017-01-17T04:30:00Z,28.6620,-89.5510,19.3,11111222 
ADCP,ioos:station:NOAA.NDBC:WDEL1:1,2017-01-17T05:30:00Z,28.6620,-89.5510,19.5,11111222 
ADCP,ioos:station:NOAA.NDBC:WDEL1:1,2017-01-17T06:30:00Z,28.6620,-89.5510,19.6,11111222 
ADCP,ioos:station:NOAA.NDBC:WDEL1:1,2017-01-17T07:30:00Z,28.6620,-89.5510,19.7,11111222 
ADCP,ioos:station:NOAA.NDBC:WDEL1:1,2017-01-17T08:30:00Z,28.6620,-89.5510,20.0,11111222 
ADCP,ioos:station:NOAA.NDBC:WDEL1:1,2017-01-17T09:30:00Z,28.6620,-89.5510,20.0,11111222 
ADCP,ioos:station:NOAA.NDBC:WDEL1:1,2017-01-17T10:30:00Z,28.6620,-89.5510,20.0,11111222 
ADCP,ioos:station:NOAA.NDBC:WDEL1:1,2017-01-17T11:30:00Z,28.6620,-89.5510,19.9,11111222 
ADCP,ioos:station:NOAA.NDBC:WDEL1:1,2017-01-17T12:30:00Z,28.6620,-89.5510,19.9,11111222 
ADCP,ioos:station:NOAA.NDBC:WDEL1:1,2017-01-17T13:30:00Z,28.6620,-89.5510,20.0,11111222 
ADCP,ioos:station:NOAA.NDBC:WDEL1:1,2017-01-17T14:30:00Z,28.6620,-89.5510,19.6,11111222 
ADCP,ioos:station:NOAA.NDBC:WDEL1:1,2017-01-17T15:30:00Z,28.6620,-89.5510,19.1,11111222 
ADCP,ioos:station:NOAA.NDBC:WDEL1:1,2017-01-17T17:30:00Z,28.6620,-89.5510,19.3,11111222 
ADCP,ioos:station:NOAA.NDBC:WDEL1:1,2017-01-17T19:30:00Z,28.6620,-89.5510,19.6,11111222 
ADCP,ioos:station:NOAA.NDBC:WDEL1:1,2017-01-17T21:30:00Z,28.6620,-89.5510,19.7,11111222 
ADCP,ioos:station:NOAA.NDBC:WDEL1:1,2017-01-17T22:30:00Z,28.6620,-89.5510,19.9,11111222 
ADCP,ioos:station:NOAA.NDBC:WDEL1:1,2017-01-17T23:30:00Z,28.6620,-89.5510,19.7,11111222 
ADCP,ioos:station:NOAA.NDBC:WDEL1:1,2017-01-18T00:30:00Z,28.6620,-89.5510,19.9,11111222 
ADCP,ioos:station:NOAA.NDBC:WDEL1:1,2017-01-18T01:30:00Z,28.6620,-89.5510,20.1,11111222 
ADCP,ioos:station:NOAA.NDBC:WDEL1:1,2017-01-18T02:30:00Z,28.6620,-89.5510,20.2,11111222 
ADCP,ioos:station:NOAA.NDBC:WDEL1:1,2017-01-18T03:30:00Z,28.6620,-89.5510,20.3,11111222 
ADCP,ioos:station:NOAA.NDBC:WDEL1:1,2017-01-18T04:30:00Z,28.6620,-89.5510,20.2,11111222 
ADCP,ioos:station:NOAA.NDBC:WDEL1:1,2017-01-18T05:30:00Z,28.6620,-89.5510,20.0,11111222 
ADCP,ioos:station:NOAA.NDBC:WDEL1:1,2017-01-18T06:30:00Z,28.6620,-89.5510,19.8,11111222 
ADCP,ioos:station:NOAA.NDBC:WDEL1:1,2017-01-18T07:30:00Z,28.6620,-89.5510,19.9,11111222 
ADCP,ioos:station:NOAA.NDBC:WDEL1:1,2017-01-18T08:30:00Z,28.6620,-89.5510,20.1,11111222 
ADCP,ioos:station:NOAA.NDBC:WDEL1:1,2017-01-18T09:30:00Z,28.6620,-89.5510,20.0,11111222 
ADCP,ioos:station:NOAA.NDBC:WDEL1:1,2017-01-18T10:30:00Z,28.6620,-89.5510,20.1,11111222 
ADCP,ioos:station:NOAA.NDBC:WDEL1:1,2017-01-18T11:30:00Z,28.6620,-89.5510,20.2,11111222 
ADCP,ioos:station:NOAA.NDBC:WDEL1:1,2017-01-18T12:30:00Z,28.6620,-89.5510,20.2,11111222 
ADCP,ioos:station:NOAA.NDBC:WDEL1:1,2017-01-18T13:30:00Z,28.6620,-89.5510,20.5,11111222 
ADCP,ioos:station:NOAA.NDBC:WDEL1:1,2017-01-18T14:30:00Z,28.6620,-89.5510,20.4,11111222 
ADCP,ioos:station:NOAA.NDBC:WDEL1:1,2017-01-18T15:30:00Z,28.6620,-89.5510,20.5,11111222 
ADCP,ioos:station:NOAA.NDBC:WDEL1:1,2017-01-18T16:30:00Z,28.6620,-89.5510,20.6,11111222 
ADCP,ioos:station:NOAA.NDBC:WDEL1:1,2017-01-18T17:30:00Z,28.6620,-89.5510,20.6,11111222 
ADCP,ioos:station:NOAA.NDBC:WDEL1:1,2017-01-18T18:30:00Z,28.6620,-89.5510,20.5,11111222 
ADCP,ioos:station:NOAA.NDBC:WDEL1:1,2017-01-18T20:30:00Z,28.6620,-89.5510,20.6,11111222 
ADCP,ioos:station:NOAA.NDBC:WDEL1:1,2017-01-18T21:30:00Z,28.6620,-89.5510,20.5,11111222 
ADCP,ioos:station:NOAA.NDBC:WDEL1:1,2017-01-18T23:30:00Z,28.6620,-89.5510,20.4,11111222 
ADCP,ioos:station:NOAA.NDBC:WDEL1:1,2017-01-19T00:30:00Z,28.6620,-89.5510,20.7,11111222 
ADCP,ioos:station:NOAA.NDBC:WDEL1:1,2017-01-19T01:30:00Z,28.6620,-89.5510,20.8,11111222 
ADCP,ioos:station:NOAA.NDBC:WDEL1:1,2017-01-19T02:30:00Z,28.6620,-89.5510,20.7,11111222 
ADCP,ioos:station:NOAA.NDBC:WDEL1:1,2017-01-19T03:30:00Z,28.6620,-89.5510,21.0,11111222 
ADCP,ioos:station:NOAA.NDBC:WDEL1:1,2017-01-19T04:30:00Z,28.6620,-89.5510,20.9,11111222 
ADCP,ioos:station:NOAA.NDBC:WDEL1:1,2017-01-19T05:30:00Z,28.6620,-89.5510,20.6,11111222 
ADCP,ioos:station:NOAA.NDBC:WDEL1:1,2017-01-19T06:30:00Z,28.6620,-89.5510,20.8,11111222 
ADCP,ioos:station:NOAA.NDBC:WDEL1:1,2017-01-19T07:30:00Z,28.6620,-89.5510,20.9,11111222 
ADCP,ioos:station:NOAA.NDBC:WDEL1:1,2017-01-19T08:30:00Z,28.6620,-89.5510,20.6,11111222 
ADCP,ioos:station:NOAA.NDBC:WDEL1:1,2017-01-19T09:30:00Z,28.6620,-89.5510,20.3,11111222 
ADCP,ioos:station:NOAA.NDBC:WDEL1:1,2017-01-19T10:30:00Z,28.6620,-89.5510,20.5,11111222 
ADCP,ioos:station:NOAA.NDBC:WDEL1:1,2017-01-19T11:30:00Z,28.6620,-89.5510,20.1,11111222 
ADCP,ioos:station:NOAA.NDBC:WDEL1:1,2017-01-19T12:30:00Z,28.6620,-89.5510,20.5,11111222 
ADCP,ioos:station:NOAA.NDBC:WDEL1:1,2017-01-19T13:30:00Z,28.6620,-89.5510,20.0,11111222 
ADCP,ioos:station:NOAA.NDBC:WDEL1:1,2017-01-19T14:30:00Z,28.6620,-89.5510,19.9,11111222 
ADCP,ioos:station:NOAA.NDBC:WDEL1:1,2017-01-19T15:30:00Z,28.6620,-89.5510,19.9,11111222 
ADCP,ioos:station:NOAA.NDBC:WDEL1:1,2017-01-19T16:30:00Z,28.6620,-89.5510,20.0,11111222 
ADCP,ioos:station:NOAA.NDBC:WDEL1:1,2017-01-19T17:30:00Z,28.6620,-89.5510,19.9,11111222 
ADCP,ioos:station:NOAA.NDBC:WDEL1:1,2017-01-19T18:30:00Z,28.6620,-89.5510,19.9,11111222 
ADCP,ioos:station:NOAA.NDBC:WDEL1:1,2017-01-19T19:30:00Z,28.6620,-89.5510,20.0,11111222 
ADCP,ioos:station:NOAA.NDBC:WDEL1:1,2017-01-19T20:30:00Z,28.6620,-89.5510,20.0,11111222 
ADCP,ioos:station:NOAA.NDBC:WDEL1:1,2017-01-19T21:30:00Z,28.6620,-89.5510,20.3,11111222 
ADCP,ioos:station:NOAA.NDBC:WDEL1:1,2017-01-19T22:30:00Z,28.6620,-89.5510,18.5,11111222 
ADCP,ioos:station:NOAA.NDBC:WDEL1:1,2017-01-19T23:30:00Z,28.6620,-89.5510,17.4,11111222 
ADCP,ioos:station:NOAA.NDBC:WDEL1:1,2017-01-20T00:30:00Z,28.6620,-89.5510,16.1,11111222 
ADCP,ioos:station:NOAA.NDBC:WDEL1:1,2017-01-20T01:30:00Z,28.6620,-89.5510,15.8,11111222 
ADCP,ioos:station:NOAA.NDBC:WDEL1:1,2017-01-20T04:30:00Z,28.6620,-89.5510,16.9,11111222 
ADCP,ioos:station:NOAA.NDBC:WDEL1:1,2017-01-20T08:30:00Z,28.6620,-89.5510,19.0,11111222 
ADCP,ioos:station:NOAA.NDBC:WDEL1:1,2017-01-20T10:30:00Z,28.6620,-89.5510,19.7,11111222 
ADCP,ioos:station:NOAA.NDBC:WDEL1:1,2017-01-20T13:30:00Z,28.6620,-89.5510,20.6,11111222 
ADCP,ioos:station:NOAA.NDBC:WDEL1:1,2017-01-20T14:30:00Z,28.6620,-89.5510,20.5,11111222 
ADCP,ioos:station:NOAA.NDBC:WDEL1:1,2017-01-21T13:30:00Z,28.6620,-89.5510,21.2,11111222 
ADCP,ioos:station:NOAA.NDBC:WDEL1:1,2017-01-21T14:30:00Z,28.6620,-89.5510,21.0,11111222 
ADCP,ioos:station:NOAA.NDBC:WDEL1:1,2017-01-21T19:30:00Z,28.6620,-89.5510,21.0,11111222 
ADCP,ioos:station:NOAA.NDBC:WDEL1:1,2017-01-21T22:30:00Z,28.6620,-89.5510,21.2,11111222 
ADCP,ioos:station:NOAA.NDBC:WDEL1:1,2017-01-21T23:30:00Z,28.6620,-89.5510,21.1,11111222 
ADCP,ioos:station:NOAA.NDBC:WDEL1:1,2017-01-22T00:30:00Z,28.6620,-89.5510,21.2,11111222 
ADCP,ioos:station:NOAA.NDBC:WDEL1:1,2017-01-22T02:30:00Z,28.6620,-89.5510,21.2,11111222 
ADCP,ioos:station:NOAA.NDBC:WDEL1:1,2017-01-22T07:30:00Z,28.6620,-89.5510,21.2,11111222 
ADCP,ioos:station:NOAA.NDBC:WDEL1:1,2017-01-22T08:30:00Z,28.6620,-89.5510,21.1,11111222 
ADCP,ioos:station:NOAA.NDBC:WDEL1:1,2017-01-22T09:30:00Z,28.6620,-89.5510,21.1,11111222 
ADCP,ioos:station:NOAA.NDBC:WDEL1:1,2017-01-22T10:30:00Z,28.6620,-89.5510,21.2,11111222 
ADCP,ioos:station:NOAA.NDBC:WDEL1:1,2017-01-22T12:30:00Z,28.6620,-89.5510,20.9,11111222 
ADCP,ioos:station:NOAA.NDBC:WDEL1:1,2017-01-22T14:30:00Z,28.6620,-89.5510,18.9,11111222 
ADCP,ioos:station:NOAA.NDBC:WDEL1:1,2017-01-22T18:30:00Z,28.6620,-89.5510,10.2,11111222 
ADCP,ioos:station:NOAA.NDBC:WDEL1:1,2017-01-22T19:30:00Z,28.6620,-89.5510,9.6,11111222 
ADCP,ioos:station:NOAA.NDBC:WDEL1:1,2017-01-22T20:30:00Z,28.6620,-89.5510,8.5,11111222 
ADCP,ioos:station:NOAA.NDBC:WDEL1:1,2017-01-23T08:30:00Z,28.6620,-89.5510,10.3,11111222 
ADCP,ioos:station:NOAA.NDBC:WDEL1:1,2017-01-23T10:30:00Z,28.6620,-89.5510,9.8,11111222 
ADCP,ioos:station:NOAA.NDBC:WDEL1:1,2017-01-23T17:30:00Z,28.6620,-89.5510,9.0,11111222 
ADCP,ioos:station:NOAA.NDBC:WDEL1:1,2017-01-23T21:30:00Z,28.6620,-89.5510,10.8,11111222 
ADCP,ioos:station:NOAA.NDBC:WDEL1:1,2017-01-23T22:30:00Z,28.6620,-89.5510,11.4,11111222 
ADCP,ioos:station:NOAA.NDBC:WDEL1:1,2017-01-24T07:30:00Z,28.6620,-89.5510,9.9,11111222 
ADCP,ioos:station:NOAA.NDBC:WDEL1:1,2017-01-24T09:30:00Z,28.6620,-89.5510,8.5,11111222 
ADCP,ioos:station:NOAA.NDBC:WDEL1:1,2017-01-24T18:30:00Z,28.6620,-89.5510,9.5,11111222 
ADCP,ioos:station:NOAA.NDBC:WDEL1:1,2017-01-24T19:30:00Z,28.6620,-89.5510,8.7,11111222 
ADCP,ioos:station:NOAA.NDBC:WDEL1:1,2017-01-24T20:30:00Z,28.6620,-89.5510,10.3,11111222 
ADCP,ioos:station:NOAA.NDBC:WDEL1:1,2017-01-25T01:30:00Z,28.6620,-89.5510,12.7,11111222 
ADCP,ioos:station:NOAA.NDBC:WDEL1:1,2017-01-25T09:30:00Z,28.6620,-89.5510,16.7,11111222 
ADCP,ioos:station:NOAA.NDBC:WDEL1:1,2017-01-25T10:30:00Z,28.6620,-89.5510,17.1,11111222 
ADCP,ioos:station:NOAA.NDBC:WDEL1:1,2017-01-26T04:30:00Z,28.6620,-89.5510,19.9,11111222 
ADCP,ioos:station:NOAA.NDBC:WDEL1:1,2017-01-26T05:30:00Z,28.6620,-89.5510,19.9,11111222 
ADCP,ioos:station:NOAA.NDBC:WDEL1:1,2017-01-26T06:30:00Z,28.6620,-89.5510,20.0,11111222 
ADCP,ioos:station:NOAA.NDBC:WDEL1:1,2017-01-26T08:30:00Z,28.6620,-89.5510,15.9,11111222 
ADCP,ioos:station:NOAA.NDBC:WDEL1:1,2017-01-26T09:30:00Z,28.6620,-89.5510,14.8,11111222 